{"data":{"norad_id":59521,"intl_designator":"2024-073L","name":"STARLINK-31404","alt_names":[],"object_type":"PAYLOAD","status":"ACTIVE","operator":null,"country":"US","launch_date":"2024-04-17","launch_site_code":"AFETR","launch_vehicle":null,"mission":null,"orbit_class":"UNKNOWN","rcs_meters":null,"size_class":null,"mass_kg":null,"dimensions":null,"purposes":["comms"],"wikipedia_slug":null,"has_3d_model":false,"image_url":null,"decayed_at":null,"tle_current":{"epoch":"2026-05-25T00:11:35.299680Z","epoch_age_seconds":77632,"freshness":"FRESH","line1":"1 59521U 24073L   26145.00804745  .00000500  00000+0  27728-4 0  9998","line2":"2 59521  43.0056 247.3478 0002599 275.9629  84.0926 15.27572476117848","mean_motion":15.27572476,"eccentricity":0.0002599,"inclination_deg":43.0056,"raan_deg":247.3478,"arg_perigee_deg":275.9629,"mean_anomaly_deg":84.0926,"bstar":2.7728e-5,"rev_number":11784,"period_min":94.267213020929,"perigee_km":481.28839757305,"apogee_km":484.85485381669,"semimajor_km":6861.2086256949,"source":"CELESTRAK","updated_at":"2026-05-25T13:38:18.975603Z"}}}